Terminal Aerodrome Forecast
Issued by NWS Bismarck, ND

Home | Current Version | Previous Version | Graphics & Text | Print | Product List | Glossary On
Versions: 1 2 3 4 5 6 7 8 9 10 11 12 13 14 15 16 17 18 19
000
FTUS43 KBIS 171500 AAA
TAFISN
TAF AMD
KISN 171529Z 1715/1812 19006KT P6SM VCSH SCT120
     FM171800 19006KT P6SM VCTS SCT070CB
     FM180000 22008KT P6SM BKN080
     FM181100 29008KT P6SM SCT080=

USA.gov is the U.S. government's official web portal to all federal, state and local government web resources and services.